Regional Weather Roundup
Issued by NWS

Home | Current Version | Previous Version | Text Only | Print | Product List | Glossary Off
Versions: 1 2 3 4 5 6 7 8 9 10 11 12 13 14 15 16 17 18 19 20 21 22 23 24 25 26 27 28 29 30 31 32 33 34 35 36 37 38 39 40 41 42 43 44 45 46 47 48 49 50

472
ASUS43 KTOP 260408
RWRKS

WEATHER ROUNDUP FOR KANSAS
NATIONAL WEATHER SERVICE GOODLAND KS
1100 PM CDT WED MAY 25 2016

NOTE:  "FAIR" INDICATES FEW OR NO CLOUDS BELOW 12,000 FEET WITH NO
SIGNIFICANT WEATHER AND/OR OBSTRUCTIONS TO VISIBILITY.

KSZ001>006-013>018-027>032-041>047-260500-
NORTHWEST KANSAS

CITY           SKY/WX    TMP DP  RH WIND       PRES   REMARKS
GOODLAND       CLEAR     53  48  83 E9        29.92S
HAYS           CLEAR     59  59 100 NE9       29.87R
HILL CITY      CLEAR     66  61  84 N17G25    29.92R
RUSSELL        CLEAR     68  66  93 N9        29.85R
$$

KSZ061>065-074>080-084>089-260500-
SOUTHWEST KANSAS

CITY           SKY/WX    TMP DP  RH WIND       PRES   REMARKS
DODGE CITY     CLEAR     66  61  84 E8        29.86R
ELKHART          N/A     67  39  35 S8          N/A
GARDEN CITY    CLEAR     66  60  81 E10       29.85S
GREAT BEND     CLEAR     70  63  78 E6        29.84S
LIBERAL        CLEAR     70  41  35 SE8       29.86S
PRATT          CLEAR     69  65  85 CALM      29.85R
$$

KSZ066>073-081>083-090>101-260500-
SOUTHEAST KANSAS

CITY           SKY/WX    TMP DP  RH WIND       PRES   REMARKS
CHANUTE        CLOUDY    78  71  79 S13       29.88R
COFFEYVILLE    CLOUDY    78  73  84 S14       29.88R
HUTCHINSON     CLEAR     76  70  82 SE5       29.83R
MEDICINE LODGE   N/A     77  63  61 S12       29.82R
NEWTON         CLEAR     75  68  78 S7        29.86S
PARSONS        CLOUDY    78  73  84 S7        29.89R
WICHITA INTL   CLOUDY    78  72  81 S12       29.82R
WICHITA JABRA  CLOUDY    77  73  87 S12       29.83R
WICHITA MCCONL CLOUDY    78  73  85 S16       29.83R
WINFIELD       CLOUDY    78  72  81 S14G21    29.86R
$$

KSZ007>012-019>026-033>040-048>060-102>105-260500-
NORTHEAST KANSAS

CITY           SKY/WX    TMP DP  RH WIND       PRES   REMARKS
CONCORDIA      PTCLDY    71  68  90 N7        29.85R
EMPORIA        CLOUDY    75  72  90 S15       29.86R
LAWRENCE       CLOUDY    76  71  85 SE9       29.86R
MANHATTAN      CLOUDY    69  56  62 MISG      29.83R THUNDER
MARYSVILLE     CLOUDY    70  68  94 CALM      29.84R
OLATHE IND     CLOUDY    74  70  87 SE10      29.88F
OLATHE EXE     CLOUDY    73  69  87 SE10      29.88S
SALINA         CLEAR     71  66  84 NW5       29.82R
TOPEKA BILLARD LGT RAIN  76  71  85 W13G18    29.87R
TOPEKA FORBES  CLOUDY    76  71  85 E6        29.86R THUNDER
$$




USA.gov is the U.S. government's official web portal to all federal, state and local government web resources and services.